Location: Warren
(41.8440°N, 79.1450°W)
Time: 02:48:21
(UTC-05:00)

ISS - Visible Passes

Search period start: 22 January 2018 00:00
Search period end: 01 February 2018 00:00
Orbit: 402 x 407 km, 51.6° (Epoch: 22 January)

Date Brightness Start Highest point End Pass type
(mag) Time Alt. Az. Time Alt. Az. Time Alt. Az.
24 Jan -2.5 19:12:02 10° SSW 19:14:08 31° S 19:14:08 31° S visible
25 Jan -2.3 18:20:21 10° S 18:22:55 22° SE 18:24:19 17° E visible
25 Jan -0.9 19:56:04 10° WSW 19:57:00 17° W 19:57:00 17° W visible
26 Jan -3.9 19:03:34 10° WSW 19:06:50 80° NW 19:07:05 72° NNE visible
27 Jan -3.5 18:11:20 10° SW 18:14:30 53° SE 18:17:05 14° ENE visible
27 Jan -1.2 19:48:20 10° W 19:49:45 19° WNW 19:49:45 19° WNW visible
28 Jan -2.8 18:55:33 10° W 18:58:38 38° NNW 18:59:40 29° NNE visible
29 Jan -3.6 18:02:57 10° WSW 18:06:10 65° NNW 18:09:25 10° NE visible
29 Jan -1.2 19:40:45 10° WNW 19:42:11 16° NW 19:42:11 16° NW visible
30 Jan -2.0 18:47:48 10° WNW 18:50:30 23° NNW 18:51:59 17° NNE visible
31 Jan -1.2 19:33:06 10° NW 19:34:23 14° NNW 19:34:23 14° NNW visible
